Stündliche Wetter Holmovo

Heute, 25 Juni, Freitag

Zeit Temperatur Niederschläge Wind Luftdruck Luftfeuchtigkeit
00:00 +19°C° 1.6 mm 3 m/S 742 mmHg 94%
01:00 +19°C° 1.6 mm 2 m/S 742 mmHg 93%
02:00 +19°C° 1.6 mm 2 m/S 742 mmHg 92%
03:00 +20°C° 0 mm 1 m/S 742 mmHg 93%
04:00 +21°C° 0 mm 1 m/S 742 mmHg 93%
05:00 +21°C° 0 mm 1 m/S 741 mmHg 93%
06:00 +23°C° 0 mm 1 m/S 741 mmHg 86%
07:00 +25°C° 0 mm 1 m/S 741 mmHg 78%
08:00 +27°C° 0 mm 1 m/S 741 mmHg 70%
09:00 +28°C° 0 mm 2 m/S 741 mmHg 64%
10:00 +30°C° 0 mm 2 m/S 741 mmHg 58%
11:00 +31°C° 0 mm 2 m/S 741 mmHg 52%
12:00 +32°C° 0 mm 2 m/S 741 mmHg 49%
13:00 +34°C° 0 mm 3 m/S 741 mmHg 46%
14:00 +34°C° 0 mm 3 m/S 741 mmHg 43%
15:00 +34°C° 0 mm 3 m/S 740 mmHg 46%
16:00 +32°C° 0 mm 2 m/S 740 mmHg 49%
17:00 +32°C° 0 mm 2 m/S 739 mmHg 52%
18:00 +29°C° 0.5 mm 3 m/S 739 mmHg 64%
19:00 +27°C° 0.5 mm 3 m/S 739 mmHg 76%
20:00 +24°C° 0.5 mm 3 m/S 739 mmHg 87%
21:00 +22°C° 1.6 mm 3 m/S 739 mmHg 89%
22:00 +21°C° 1.6 mm 2 m/S 739 mmHg 91%
23:00 +20°C° 1.6 mm 1 m/S 739 mmHg 93%

Morgen, 26 Juni, Samstag

Zeit Temperatur Niederschläge Wind Luftdruck Luftfeuchtigkeit
00:00 +20°C° 0.3 mm 1 m/S 739 mmHg 93%
01:00 +19°C° 0.3 mm 2 m/S 739 mmHg 94%
02:00 +19°C° 0.3 mm 2 m/S 739 mmHg 94%
03:00 +20°C° 0.4 mm 1 m/S 739 mmHg 94%
04:00 +20°C° 0.4 mm 1 m/S 738 mmHg 95%
05:00 +21°C° 0.4 mm 1 m/S 738 mmHg 95%
06:00 +21°C° 0 mm 2 m/S 738 mmHg 86%
07:00 +24°C° 0 mm 3 m/S 739 mmHg 76%
08:00 +26°C° 0 mm 3 m/S 739 mmHg 67%
09:00 +27°C° 0 mm 3 m/S 739 mmHg 61%
10:00 +28°C° 0 mm 3 m/S 739 mmHg 56%
11:00 +30°C° 0 mm 3 m/S 739 mmHg 50%
12:00 +30°C° 0 mm 3 m/S 739 mmHg 48%
13:00 +31°C° 0 mm 3 m/S 739 mmHg 46%
14:00 +31°C° 0 mm 3 m/S 739 mmHg 45%
15:00 +31°C° 0 mm 3 m/S 739 mmHg 48%
16:00 +31°C° 0 mm 3 m/S 739 mmHg 50%
17:00 +30°C° 0 mm 3 m/S 738 mmHg 53%
18:00 +28°C° 0 mm 2 m/S 738 mmHg 61%
19:00 +26°C° 0 mm 2 m/S 738 mmHg 70%
20:00 +24°C° 0 mm 1 m/S 738 mmHg 78%
21:00 +23°C° 0 mm 1 m/S 739 mmHg 82%
22:00 +21°C° 0 mm 2 m/S 739 mmHg 86%
23:00 +20°C° 0 mm 2 m/S 739 mmHg 90%

übermorgen, 27 Juni, Sonntag

Zeit Temperatur Niederschläge Wind Luftdruck Luftfeuchtigkeit
00:00 +21°C° 0 mm 1 m/S 739 mmHg 92%
01:00 +20°C° 0 mm 1 m/S 739 mmHg 94%
02:00 +20°C° 0 mm 1 m/S 739 mmHg 96%
03:00 +20°C° 0 mm 1 m/S 739 mmHg 94%
04:00 +21°C° 0 mm 1 m/S 739 mmHg 92%
05:00 +21°C° 0 mm 1 m/S 739 mmHg 90%
06:00 +23°C° 0 mm 1 m/S 740 mmHg 82%
07:00 +25°C° 0 mm 1 m/S 740 mmHg 74%
08:00 +26°C° 0 mm 1 m/S 740 mmHg 66%
09:00 +27°C° 0 mm 1 m/S 740 mmHg 62%
10:00 +28°C° 0 mm 1 m/S 740 mmHg 57%
11:00 +29°C° 0 mm 1 m/S 740 mmHg 53%
12:00 +27°C° 1 mm 2 m/S 739 mmHg 64%
13:00 +26°C° 1 mm 3 m/S 739 mmHg 75%
14:00 +24°C° 1 mm 3 m/S 739 mmHg 85%
15:00 +22°C° 1.9 mm 3 m/S 739 mmHg 89%
16:00 +21°C° 1.9 mm 3 m/S 739 mmHg 93%
17:00 +20°C° 1.9 mm 3 m/S 739 mmHg 96%
18:00 +20°C° 0 mm 2 m/S 739 mmHg 96%
19:00 +20°C° 0 mm 2 m/S 739 mmHg 96%
20:00 +21°C° 0 mm 1 m/S 739 mmHg 96%
21:00 +20°C° 0 mm 1 m/S 739 mmHg 96%
22:00 +20°C° 0 mm 1 m/S 739 mmHg 96%
23:00 +19°C° 0 mm 1 m/S 739 mmHg 96%

28 Juni, Montag

Zeit Temperatur Niederschläge Wind Luftdruck Luftfeuchtigkeit
00:00 +18°C° 0 mm 2 m/S 739 mmHg 96%
01:00 +17°C° 0 mm 2 m/S 739 mmHg 95%
02:00 +17°C° 0 mm 2 m/S 739 mmHg 95%
03:00 +17°C° 0 mm 2 m/S 739 mmHg 94%
04:00 +17°C° 0 mm 2 m/S 739 mmHg 93%
05:00 +17°C° 0 mm 2 m/S 739 mmHg 92%
06:00 +18°C° 0.1 mm 2 m/S 739 mmHg 88%
07:00 +19°C° 0.1 mm 3 m/S 739 mmHg 84%
08:00 +19°C° 0.1 mm 3 m/S 739 mmHg 80%
09:00 +21°C° 0 mm 3 m/S 739 mmHg 73%
10:00 +22°C° 0 mm 3 m/S 740 mmHg 66%
11:00 +25°C° 0 mm 3 m/S 740 mmHg 58%
12:00 +25°C° 0.1 mm 3 m/S 740 mmHg 57%
13:00 +26°C° 0.1 mm 3 m/S 739 mmHg 55%
14:00 +26°C° 0.1 mm 3 m/S 739 mmHg 54%
15:00 +26°C° 0.1 mm 2 m/S 739 mmHg 56%
16:00 +26°C° 0.1 mm 2 m/S 739 mmHg 57%
17:00 +26°C° 0.1 mm 2 m/S 739 mmHg 59%
18:00 +24°C° 0 mm 2 m/S 738 mmHg 66%
19:00 +21°C° 0 mm 2 m/S 738 mmHg 74%
20:00 +21°C° 0 mm 1 m/S 738 mmHg 81%
21:00 +19°C° 0 mm 2 m/S 738 mmHg 83%
22:00 +18°C° 0 mm 2 m/S 738 mmHg 84%
23:00 +17°C° 0 mm 2 m/S 738 mmHg 85%

29 Juni, Dienstag

Zeit Temperatur Niederschläge Wind Luftdruck Luftfeuchtigkeit
00:00 +17°C° 0 mm 2 m/S 738 mmHg 83%
01:00 +17°C° 0 mm 2 m/S 738 mmHg 82%
02:00 +17°C° 0 mm 2 m/S 737 mmHg 80%
03:00 +17°C° 0.2 mm 2 m/S 737 mmHg 83%
04:00 +17°C° 0.2 mm 2 m/S 737 mmHg 86%
05:00 +17°C° 0.2 mm 2 m/S 737 mmHg 89%
06:00 +17°C° 0.2 mm 2 m/S 737 mmHg 89%
07:00 +17°C° 0.2 mm 3 m/S 737 mmHg 89%
08:00 +17°C° 0.2 mm 3 m/S 737 mmHg 89%
09:00 +17°C° 0.8 mm 3 m/S 737 mmHg 91%
10:00 +17°C° 0.8 mm 4 m/S 737 mmHg 93%
11:00 +17°C° 0.8 mm 4 m/S 736 mmHg 95%
12:00 +17°C° 0.5 mm 4 m/S 736 mmHg 95%
13:00 +17°C° 0.5 mm 4 m/S 736 mmHg 94%
14:00 +17°C° 0.5 mm 5 m/S 736 mmHg 93%
15:00 +17°C° 0.1 mm 5 m/S 736 mmHg 92%
16:00 +17°C° 0.1 mm 5 m/S 736 mmHg 91%
17:00 +17°C° 0.1 mm 5 m/S 735 mmHg 90%
18:00 +17°C° 0 mm 5 m/S 735 mmHg 87%
19:00 +17°C° 0 mm 5 m/S 735 mmHg 85%
20:00 +18°C° 0 mm 4 m/S 735 mmHg 83%
21:00 +18°C° 0 mm 4 m/S 735 mmHg 81%
22:00 +18°C° 0 mm 4 m/S 735 mmHg 80%
23:00 +18°C° 0 mm 4 m/S 735 mmHg 79%

30 Juni, Mittwoch

Zeit Temperatur Niederschläge Wind Luftdruck Luftfeuchtigkeit
00:00 +18°C° 0 mm 4 m/S 735 mmHg 77%
01:00 +18°C° 0 mm 4 m/S 735 mmHg 75%
02:00 +18°C° 0 mm 4 m/S 734 mmHg 74%
03:00 +18°C° 0.1 mm 3 m/S 734 mmHg 75%
04:00 +18°C° 0.1 mm 3 m/S 734 mmHg 76%
05:00 +17°C° 0.1 mm 3 m/S 734 mmHg 77%
06:00 +17°C° 0.7 mm 3 m/S 735 mmHg 83%
07:00 +17°C° 0.7 mm 3 m/S 735 mmHg 88%
08:00 +17°C° 0.7 mm 3 m/S 735 mmHg 93%
09:00 +18°C° 0.4 mm 3 m/S 735 mmHg 92%
10:00 +19°C° 0.4 mm 3 m/S 735 mmHg 90%
11:00 +20°C° 0.4 mm 3 m/S 735 mmHg 89%
12:00 +21°C° 0.1 mm 4 m/S 735 mmHg 84%
13:00 +21°C° 0.1 mm 4 m/S 735 mmHg 80%
14:00 +22°C° 0.1 mm 4 m/S 735 mmHg 75%
15:00 +22°C° 0.1 mm 3 m/S 735 mmHg 79%
16:00 +22°C° 0.1 mm 3 m/S 735 mmHg 82%
17:00 +21°C° 0.1 mm 2 m/S 735 mmHg 85%
18:00 +21°C° 0.1 mm 2 m/S 735 mmHg 88%
19:00 +21°C° 0.1 mm 1 m/S 735 mmHg 91%
20:00 +20°C° 0.1 mm 1 m/S 735 mmHg 94%
21:00 +20°C° 0 mm 1 m/S 735 mmHg 95%
22:00 +19°C° 0 mm 1 m/S 735 mmHg 95%
23:00 +19°C° 0 mm 1 m/S 735 mmHg 96%
Mehr zeigen

Wir brauchen deine Erlaubnis

Meteoprog und unser Service Anbieter werden persönliche Daten aufbewahren, so wie Cookies, Geräte Bezeichnung oder ähnliche Technologien von deinem Gerät und Prozess, so wie Persönliche Daten Inhalte und Werbungen, genauso wie social Media und den Verkehr zu analysieren.

  • Aufbewahrung und/oder Zugang zu deiner Geräte Informationen.

    Cookies, Geräte Bezeichnung oder andere Informationen, können aufbewahrt oder Zugang zu deinem Gerät erhalten, für den Grund, der oben angegeben wird.

  • Personalisierte Werbung und Inhalte, Messungen, Einblick in das Publikum und Produkt Entwicklung.

    Werbungen und Inhalte können personalisiert werden, basierend auf ein Profil. Mehr Daten können besser personalisierte Werbungen und Inhalte hinzufügen. Werbung und Inhalte können gezeigt und gemessen werden. Einblicke über das Publikum, welche die Werbung gesehen haben und den Inhalt, können abgeleitet werden. So wie Daten können genutzt werden, um es zu verbessern oder die Benutzer Erfahrung zu verbessern das System und die Software.

Wenn du “Ich stimme zu” klickst, erlaubst du uns, die Cookies zu benutzen die Geräte Bezeichnung, den Web oder ähnliche Technologien zu benutzen. Deine Settings, können in deinem Gerät bei deinem Browser geändert werden.

Für den bestimmten Zweck, berechtigten Interessen beruhen darauf, mehr als auf den Inhalt. Du kannst mehr darüber in unseren Privaten und Cookie Politik lesen.